EW4235 Weather Reports


Display with metric or nautical units.
time (UTC)temp
F
wind
direction
speed
MPH
gust
MPH
rain 1hr
in
rain 24hr
in
rain mn
in
humidity
%
barometer
mb
20181016173249 56 302 0.0 1.0 0.00 0.01 0.00 60 1021.9
20181016172751 56 277 0.0 1.0 0.00 0.01 0.00 61 1021.7
20181016172249 56 276 0.0 2.0 0.00 0.01 0.00 61 1021.8
20181016171747 56 11 0.0 2.0 0.00 0.01 0.00 61 1022.0
20181016171247 56 300 0.0 2.0 0.00 0.01 0.00 63 1022.4
20181016170747 56 304 0.0 1.0 0.00 0.01 0.00 63 1022.4
20181016170246 56 345 0.0 1.0 0.00 0.01 0.00 61 1022.5
20181016165746 56 309 0.0 1.0 0.00 0.01 0.00 61 1022.8
20181016165246 56 18 0.0 1.0 0.00 0.01 0.00 61 1022.7
20181016164745 56 326 0.0 2.0 0.00 0.01 0.00 61 1022.8
20181016164244 56 6 0.0 2.0 0.00 0.01 0.00 63 1023.0
20181016163744 56 11 0.0 2.0 0.00 0.01 0.00 63 1023.1
20181016163244 56 344 0.0 2.0 0.00 0.01 0.00 64 1023.1
20181016162743 55 108 1.0 2.0 0.00 0.01 0.00 62 1023.2
20181016162244 55 298 0.0 2.0 0.00 0.01 0.00 63 1023.3
20181016161744 55 243 0.0 2.0 0.00 0.01 0.00 64 1023.3
20181016161241 55 336 1.0 4.0 0.00 0.01 0.00 63 1023.5
20181016160742 55 335 2.0 4.0 0.00 0.01 0.00 62 1023.5
20181016160241 55 25 1.0 4.0 0.00 0.01 0.00 62 1023.6
20181016155743 55 280 1.0 4.0 0.00 0.01 0.00 63 1023.6
20181016155241 55 329 2.0 5.0 0.00 0.01 0.00 63 1023.9
20181016154741 55 293 1.0 5.0 0.00 0.01 0.00 62 1023.8
20181016154241 54 8 1.0 4.0 0.00 0.01 0.00 63 1023.6
20181016153743 54 11 1.0 4.0 0.00 0.01 0.00 64 1023.7
20181016153242 55 110 1.0 2.0 0.00 0.01 0.00 64 1023.7
20181016152742 54 82 1.0 2.0 0.00 0.01 0.00 66 1023.8
20181016152241 54 276 1.0 3.0 0.00 0.01 0.00 64 1023.6
20181016151739 54 285 1.0 3.0 0.00 0.01 0.00 63 1023.8
20181016151239 55 165 0.0 2.0 0.00 0.01 0.00 67 1023.6
20181016150740 54 275 0.0 2.0 0.00 0.01 0.00 66 1023.7
20181016150240 54 295 1.0 6.0 0.00 0.01 0.00 65 1023.7
20181016145739 54 282 1.0 6.0 0.00 0.01 0.00 63 1023.8
20181016145240 54 351 1.0 3.0 0.00 0.01 0.00 65 1023.9
20181016144740 54 59 1.0 4.0 0.00 0.01 0.00 67 1023.8
20181016144240 53 316 2.0 7.0 0.00 0.01 0.00 65 1023.7
20181016143739 53 295 2.0 7.0 0.00 0.01 0.00 66 1023.7
20181016143237 53 278 1.0 5.0 0.00 0.01 0.00 67 1023.6
20181016142738 52 293 1.0 8.0 0.00 0.01 0.00 68 1023.8
20181016142241 52 274 1.0 8.0 0.00 0.01 0.00 67 1023.7
20181016141737 52 32 0.0 3.0 0.00 0.01 0.00 72 1023.7
20181016141237 52 305 0.0 3.0 0.00 0.01 0.00 71 1023.8
20181016140737 52 286 0.0 2.0 0.00 0.01 0.00 71 1023.8
20181016140238 51 292 0.0 2.0 0.00 0.01 0.00 70 1023.7
20181016135738 51 352 0.0 2.0 0.00 0.01 0.00 72 1023.6
20181016135236 51 302 0.0 2.0 0.00 0.01 0.00 71 1023.6
20181016134736 51 248 0.0 2.0 0.00 0.01 0.00 72 1023.6
20181016134235 51 165 0.0 2.0 0.00 0.01 0.00 74 1023.6
20181016133736 52 294 0.0 2.0 0.00 0.01 0.00 75 1023.4
20181016133234 51 277 0.0 2.0 0.00 0.01 0.00 74 1023.5
20181016132734 51 354 1.0 3.0 0.00 0.01 0.00 72 1023.6
20181016132233 51 288 1.0 3.0 0.00 0.01 0.00 71 1023.5
20181016131733 52 291 1.0 6.0 0.00 0.01 0.00 72 1023.8
20181016131232 51 299 1.0 6.0 0.00 0.01 0.00 72 1023.6
20181016130732 52 341 0.0 4.0 0.00 0.01 0.00 72 1023.5
20181016130233 52 288 1.0 4.0 0.00 0.02 0.00 72 1023.4
20181016125733 51 21 1.0 3.0 0.00 0.02 0.00 72 1023.5
20181016125234 51 311 1.0 5.0 0.00 0.02 0.00 72 1023.5
20181016124734 51 330 1.0 5.0 0.00 0.02 0.00 71 1023.4
20181016124230 51 299 1.0 4.0 0.00 0.02 0.00 72 1023.3
20181016123730 52 290 1.0 4.0 0.00 0.02 0.00 73 1023.4
20181016123230 52 302 2.0 9.0 0.00 0.02 0.00 72 1023.3
20181016122730 52 349 2.0 9.0 0.00 0.03 0.00 71 1023.3
20181016122230 52 292 1.0 8.0 0.00 0.03 0.00 73 1023.3
20181016121729 52 301 2.0 8.0 0.00 0.03 0.00 71 1023.3
20181016121229 52 287 1.0 5.0 0.00 0.03 0.00 72 1023.1
20181016120729 52 31 1.0 4.0 0.00 0.03 0.00 72 1023.0
20181016120229 52 298 1.0 4.0 0.00 0.04 0.00 73 1023.0
20181016115730 52 297 1.0 3.0 0.00 0.04 0.00 72 1022.7
20181016115229 52 351 0.0 2.0 0.00 0.05 0.00 74 1022.7
20181016114731 52 354 0.0 2.0 0.00 0.05 0.00 74 1022.5
20181016114230 52 339 0.0 3.0 0.00 0.05 0.00 73 1022.1
20181016113726 52 33 1.0 3.0 0.00 0.06 0.00 72 1022.4
20181016113227 52 302 1.0 4.0 0.00 0.06 0.00 72 1022.6
20181016112727 52 285 0.0 4.0 0.00 0.06 0.00 72 1022.1
20181016112228 52 309 0.0 3.0 0.00 0.06 0.00 74 1022.0
20181016111726 52 309 0.0 3.0 0.00 0.06 0.00 72 1021.9
20181016111224 53 300 1.0 3.0 0.00 0.06 0.00 72 1021.9
20181016110727 53 294 0.0 2.0 0.00 0.07 0.00 71 1022.3
20181016110225 53 220 0.0 1.0 0.00 0.07 0.00 72 1021.7
20181016105723 53 349 0.0 2.0 0.00 0.07 0.00 72 1021.7
20181016105220 53 20 0.0 2.0 0.00 0.07 0.00 72 1021.9
20181016104720 53 314 0.0 2.0 0.00 0.07 0.00 71 1021.8
20181016104218 53 354 1.0 3.0 0.00 0.08 0.00 72 1021.5
20181016103716 53 296 1.0 3.0 0.00 0.09 0.00 71 1021.6
20181016103217 53 295 1.0 3.0 0.00 0.09 0.00 71 1021.7
20181016102717 54 311 1.0 3.0 0.00 0.09 0.00 71 1021.8
20181016102219 54 325 1.0 6.0 0.00 0.09 0.00 71 1021.6
20181016101718 54 308 1.0 6.0 0.00 0.09 0.00 70 1021.3
20181016101217 54 7 1.0 4.0 0.00 0.10 0.00 71 1021.2
20181016100716 54 297 1.0 3.0 0.00 0.10 0.00 71 1021.7
20181016100217 54 288 0.0 2.0 0.00 0.11 0.00 70 1021.5
20181016095716 55 329 1.0 5.0 0.00 0.12 0.00 71 1021.6
20181016095219 55 314 1.0 5.0 0.00 0.12 0.00 69 1021.3
20181016094717 55 282 1.0 4.0 0.00 0.12 0.00 69 1021.1
20181016094216 55 301 1.0 4.0 0.00 0.12 0.00 68 1021.1
20181016093717 55 358 1.0 3.0 0.00 0.13 0.00 69 1021.0
20181016093217 55 292 1.0 5.0 0.00 0.14 0.00 67 1021.1
20181016092716 56 18 1.0 5.0 0.00 0.16 0.00 68 1021.0
20181016092217 56 293 1.0 5.0 0.00 0.16 0.00 69 1021.0
20181016091717 56 359 1.0 6.0 0.00 0.16 0.00 70 1020.7
20181016091218 56 290 1.0 6.0 0.00 0.16 0.00 71 1020.7
20181016090718 56 330 1.0 5.0 0.00 0.17 0.00 71 1020.7
20181016090218 56 294 1.0 5.0 0.00 0.17 0.00 70 1020.6
20181016085718 57 289 2.0 7.0 0.00 0.17 0.00 71 1020.4
20181016085217 57 15 1.0 7.0 0.00 0.17 0.00 69 1020.3
20181016084716 57 3 1.0 3.0 0.00 0.18 0.00 70 1020.3
20181016084216 57 286 1.0 4.0 0.00 0.18 0.00 69 1020.3
20181016083716 57 323 1.0 4.0 0.00 0.18 0.00 70 1020.2
20181016083216 57 286 1.0 4.0 0.00 0.18 0.00 69 1020.2
20181016082718 57 337 1.0 3.0 0.00 0.18 0.00 71 1020.2
20181016082217 57 26 1.0 4.0 0.00 0.18 0.00 72 1020.0
20181016081714 58 295 1.0 4.0 0.00 0.18 0.00 72 1019.8
20181016081216 58 27 1.0 4.0 0.00 0.18 0.00 72 1019.8
20181016080716 58 300 1.0 3.0 0.00 0.18 0.00 73 1019.9
20181016080215 58 295 0.0 3.0 0.00 0.18 0.00 73 1019.8
20181016075715 58 340 0.0 2.0 0.00 0.18 0.00 73 1019.9
20181016075216 58 349 1.0 2.0 0.00 0.18 0.00 74 1020.0
20181016074716 58 11 1.0 8.0 0.00 0.18 0.00 73 1020.2
20181016074214 58 300 1.0 8.0 0.00 0.18 0.00 73 1019.9
20181016073714 59 311 1.0 3.0 0.00 0.18 0.00 73 1019.8
20181016073215 59 321 1.0 3.0 0.00 0.18 0.00 72 1019.7
20181016072714 59 295 1.0 4.0 0.00 0.18 0.00 71 1019.8
20181016072215 59 295 2.0 6.0 0.00 0.18 0.00 71 1019.9
20181016071714 59 8 2.0 13.0 0.00 0.18 0.00 70 1019.9
20181016071213 59 291 2.0 13.0 0.00 0.18 0.00 70 1019.8
20181016070713 60 291 1.0 10.0 0.00 0.18 0.00 71 1019.8
20181016070212 60 319 1.0 3.0 0.00 0.18 0.00 72 1019.7
20181016065712 60 294 1.0 3.0 0.00 0.18 0.00 72 1019.6
20181016065213 60 297 1.0 8.0 0.00 0.18 0.00 72 1019.5
20181016064711 60 18 1.0 8.0 0.00 0.18 0.00 73 1019.3
20181016064210 60 295 1.0 6.0 0.00 0.18 0.00 72 1019.4
20181016063710 60 348 1.0 4.0 0.00 0.18 0.00 74 1019.3
20181016063212 60 306 2.0 5.0 0.00 0.18 0.00 74 1019.4
20181016062710 61 34 2.0 5.0 0.00 0.18 0.00 75 1019.5
20181016062211 61 24 1.0 7.0 0.00 0.18 0.00 75 1019.5
20181016061710 61 297 1.0 7.0 0.00 0.18 0.00 76 1019.2
20181016061211 61 349 2.0 8.0 0.00 0.18 0.00 75 1019.3
20181016060709 61 288 2.0 8.0 0.00 0.18 0.00 76 1019.4
20181016060208 61 300 2.0 5.0 0.00 0.18 0.00 76 1019.2
20181016055709 61 293 2.0 5.0 0.00 0.18 0.00 76 1019.0
20181016055207 62 335 1.0 5.0 0.00 0.18 0.00 77 1018.8
20181016054706 62 14 1.0 5.0 0.00 0.18 0.00 78 1018.9
20181016054206 62 2 0.0 2.0 0.00 0.18 0.00 79 1018.8
20181016053707 62 1 0.0 3.0 0.00 0.18 0.00 78 1018.6
20181016053204 62 301 1.0 9.0 0.00 0.18 0.00 77 1018.5
20181016052706 63 311 2.0 9.0 0.00 0.18 0.00 77 1018.4
20181016052205 63 293 2.0 5.0 0.00 0.18 0.00 77 1018.3
20181016051704 63 354 2.0 6.0 0.00 0.18 0.00 77 1018.4
20181016051210 63 297 2.0 7.0 0.00 0.18 0.00 77 1018.3
20181016050706 63 300 1.0 7.0 0.00 0.18 0.00 77 1018.3
20181016050206 63 356 1.0 7.0 0.00 0.18 0.00 77 1018.1
20181016045704 64 39 1.0 6.0 0.00 0.18 0.00 77 1017.9
20181016045206 64 11 2.0 5.0 0.00 0.18 0.00 76 1018.0
20181016044705 64 316 2.0 5.0 0.00 0.18 0.00 76 1017.7
20181016044206 64 11 2.0 7.0 0.00 0.18 0.00 76 1017.6
20181016043705 64 293 2.0 7.0 0.00 0.18 0.00 75 1017.6
20181016043204 65 305 2.0 9.0 0.00 0.18 0.00 76 1017.6
20181016042704 65 297 2.0 9.0 0.00 0.18 0.00 75 1017.7
20181016042209 65 297 2.0 8.0 0.00 0.18 0.00 78 1017.4
20181016041703 65 308 2.0 6.0 0.00 0.18 0.00 78 1017.3
20181016041200 65 275 4.0 13.0 0.00 0.18 0.00 78 1017.3
20181016040701 66 296 4.0 13.0 0.00 0.18 0.00 77 1017.4
20181016040158 66 288 3.0 13.0 0.00 0.19 0.00 79 1017.3
20181016035659 66 346 2.0 11.0 0.00 0.19 0.19 79 1017.3
20181016035157 67 295 2.0 5.0 0.00 0.19 0.19 81 1017.1
20181016034700 67 307 2.0 6.0 0.00 0.19 0.19 82 1017.1
20181016034159 67 331 2.0 6.0 0.00 0.19 0.19 82 1016.8
20181016033657 67 296 2.0 6.0 0.00 0.19 0.19 82 1016.6
20181016033155 68 300 1.0 4.0 0.00 0.19 0.19 84 1016.4
20181016032654 68 300 1.0 3.0 0.00 0.19 0.19 83 1016.3
20181016032155 68 302 2.0 5.0 0.00 0.19 0.19 87 1016.1
20181016031655 69 299 1.0 5.0 0.00 0.19 0.19 89 1016.1
20181016031154 69 302 0.0 3.0 0.00 0.19 0.19 91 1015.9
20181016030653 69 271 0.0 1.0 0.00 0.19 0.19 91 1015.4
20181016030153 69 271 0.0 1.0 0.00 0.19 0.19 91 1015.4
20181016025653 70 271 0.0 1.0 0.00 0.19 0.19 91 1015.4
20181016025153 70 271 0.0 1.0 0.00 0.19 0.19 90 1015.2
20181016024653 70 265 0.0 2.0 0.00 0.19 0.19 90 1015.0
20181016024153 70 257 0.0 2.0 0.00 0.19 0.19 90 1015.0
20181016023651 70 262 0.0 2.0 0.00 0.19 0.19 90 1015.0
20181016023152 70 217 0.0 2.0 0.00 0.19 0.19 90 1015.1
20181016022652 70 248 0.0 2.0 0.00 0.19 0.19 90 1015.1
20181016022151 70 274 1.0 2.0 0.00 0.19 0.19 89 1015.0
20181016021652 70 258 1.0 3.0 0.00 0.19 0.19 89 1015.0
20181016021153 70 252 1.0 4.0 0.00 0.19 0.19 89 1015.0
20181016020652 70 212 1.0 4.0 0.00 0.19 0.19 89 1015.2
20181016020154 70 246 1.0 3.0 0.00 0.19 0.19 89 1015.2
20181016015652 70 232 1.0 2.0 0.00 0.19 0.19 89 1015.2
20181016015154 70 274 0.0 2.0 0.00 0.19 0.19 89 1015.1
20181016014647 70 236 1.0 2.0 0.00 0.19 0.19 89 1015.3
20181016014157 70 269 1.0 2.0 0.00 0.19 0.19 89 1015.3
20181016013646 70 243 0.0 2.0 0.00 0.19 0.19 89 1015.4
20181016013145 70 254 1.0 2.0 0.00 0.19 0.19 89 1015.4
20181016012644 70 206 1.0 3.0 0.00 0.19 0.19 89 1015.3
20181016012144 70 203 1.0 3.0 0.00 0.19 0.19 89 1015.4
20181016011643 70 255 1.0 2.0 0.00 0.19 0.19 89 1015.4
20181016011143 70 283 1.0 2.0 0.00 0.19 0.19 89 1015.4
20181016010645 70 274 0.0 2.0 0.00 0.19 0.19 89 1015.2
20181016010144 70 270 1.0 2.0 0.00 0.19 0.19 89 1015.0
20181016005644 70 245 1.0 2.0 0.00 0.19 0.19 88 1015.0
20181016005144 70 231 1.0 3.0 0.00 0.19 0.19 88 1014.9
20181016004643 70 223 1.0 3.0 0.00 0.19 0.19 88 1015.0
20181016004146 70 245 1.0 4.0 0.00 0.19 0.19 88 1014.7
20181016003644 70 285 1.0 4.0 0.00 0.19 0.19 89 1014.8
20181016003143 70 264 1.0 3.0 0.00 0.19 0.19 89 1015.1
20181016002643 70 205 1.0 3.0 0.00 0.19 0.19 89 1015.2
20181016002147 70 274 1.0 3.0 0.00 0.19 0.19 89 1015.4
20181016001644 70 243 1.0 2.0 0.00 0.19 0.19 89 1015.3
20181016001146 69 232 0.0 2.0 0.00 0.19 0.19 89 1015.3
20181016000643 69 252 0.0 2.0 0.00 0.19 0.19 89 1015.4
20181016000145 69 248 0.0 2.0 0.00 0.19 0.19 90 1015.3
20181015235644 69 232 0.0 1.0 0.00 0.19 0.19 90 1015.4
20181015235144 69 258 0.0 1.0 0.00 0.19 0.19 90 1015.3
20181015234644 69 262 0.0 2.0 0.00 0.19 0.19 91 1015.2
20181015234144 69 239 0.0 2.0 0.00 0.19 0.19 91 1015.1
20181015233642 69 266 0.0 1.0 0.00 0.19 0.19 91 1015.2
20181015233144 69 228 0.0 1.0 0.00 0.19 0.19 91 1015.1
20181015232640 69 248 0.0 1.0 0.00 0.19 0.19 91 1015.1
20181015232139 68 274 0.0 1.0 0.00 0.19 0.19 92 1015.1
20181015231640 68 241 0.0 1.0 0.00 0.19 0.19 92 1014.9
20181015231140 68 250 0.0 1.0 0.00 0.19 0.19 92 1014.7
20181015230641 68 253 0.0 0.0 0.00 0.19 0.19 93 1014.7
20181015230137 68 236 0.0 0.0 0.00 0.19 0.19 93 1014.6
20181015225637 68 226 0.0 0.0 0.00 0.19 0.19 93 1014.7
20181015225137 67 226 0.0 0.0 0.00 0.19 0.19 93 1014.8
20181015224637 67 226 0.0 0.0 0.00 0.19 0.19 94 1014.6
20181015224136 67 215 0.0 0.0 0.00 0.19 0.19 94 1014.6
20181015223637 67 215 0.0 0.0 0.00 0.19 0.19 94 1014.6
20181015223137 67 215 0.0 0.0 0.00 0.19 0.19 94 1014.6
20181015222635 67 215 0.0 0.0 0.00 0.19 0.19 95 1014.6
20181015222135 67 215 0.0 0.0 0.00 0.19 0.19 94 1014.6
20181015221635 67 215 0.0 0.0 0.00 0.19 0.19 95 1014.7
20181015221135 67 215 0.0 0.0 0.00 0.19 0.19 95 1014.8
20181015220635 67 215 0.0 0.0 0.00 0.19 0.19 95 1015.0
20181015220136 66 215 0.0 0.0 0.00 0.19 0.19 95 1014.9
20181015215636 66 215 0.0 0.0 0.00 0.19 0.19 95 1014.7
20181015215136 66 215 0.0 0.0 0.00 0.19 0.19 96 1014.9
20181015214635 66 215 0.0 0.0 0.00 0.19 0.19 96 1015.1
20181015214134 66 216 0.0 0.0 0.00 0.19 0.19 96 1015.3
20181015213633 66 215 0.0 0.0 0.00 0.19 0.19 96 1015.2
20181015213134 66 215 0.0 0.0 0.00 0.19 0.19 96 1015.0
20181015212635 66 214 0.0 0.0 0.00 0.19 0.19 96 1014.6
20181015212133 66 214 0.0 0.0 0.00 0.19 0.19 96 1014.9
20181015211635 66 214 0.0 0.0 0.00 0.19 0.19 96 1015.0
20181015211133 66 214 0.0 0.0 0.00 0.19 0.19 96 1015.1
20181015210634 65 214 0.0 0.0 0.00 0.19 0.19 96 1015.3
20181015210134 65 214 0.0 0.0 0.00 0.19 0.19 96 1015.4
20181015205633 65 214 0.0 0.0 0.00 0.19 0.19 97 1015.5
20181015205132 65 214 0.0 0.0 0.00 0.19 0.19 97 1015.5
20181015204631 65 214 0.0 0.0 0.00 0.19 0.19 97 1015.4
20181015204131 65 186 0.0 0.0 0.00 0.19 0.19 97 1015.4
20181015203631 65 186 0.0 0.0 0.00 0.19 0.19 97 1015.5
20181015203131 65 186 0.0 0.0 0.00 0.19 0.19 97 1015.5
20181015202630 65 134 0.0 0.0 0.00 0.19 0.19 97 1015.4
20181015202131 65 134 0.0 0.0 0.00 0.19 0.19 97 1015.5
20181015201632 65 134 0.0 0.0 0.00 0.19 0.19 97 1015.6
20181015201130 65 134 0.0 0.0 0.00 0.19 0.19 97 1015.7
20181015200630 65 134 0.0 0.0 0.00 0.19 0.19 97 1015.8
20181015200129 65 134 0.0 0.0 0.00 0.19 0.19 97 1015.8
20181015195630 64 134 0.0 0.0 0.00 0.19 0.19 96 1015.8
20181015195129 64 222 0.0 0.0 0.00 0.19 0.19 96 1016.1
20181015194627 64 222 0.0 0.0 0.00 0.19 0.19 96 1016.2
20181015194127 64 222 0.0 0.0 0.00 0.19 0.19 96 1016.2
20181015193627 64 222 0.0 0.0 0.00 0.19 0.19 96 1016.2
20181015193127 64 222 0.0 0.0 0.00 0.19 0.19 96 1016.3
20181015192626 64 222 0.0 0.0 0.00 0.19 0.19 96 1016.2
20181015192126 64 224 0.0 0.0 0.00 0.19 0.19 96 1016.3
20181015191626 64 224 0.0 0.0 0.00 0.19 0.19 95 1016.3
20181015191125 64 224 0.0 0.0 0.00 0.19 0.19 95 1016.3
20181015190626 64 224 0.0 0.0 0.01 0.19 0.19 95 1016.4
20181015190126 64 224 0.0 0.0 0.01 0.19 0.19 95 1016.5
20181015185625 64 224 0.0 0.0 0.01 0.19 0.19 95 1016.5
20181015185125 64 223 0.0 0.0 0.01 0.19 0.19 95 1016.6
20181015184627 64 224 0.0 0.0 0.01 0.19 0.19 95 1016.7
20181015184125 64 224 0.0 0.0 0.01 0.19 0.19 94 1016.7
20181015183626 64 224 0.0 0.0 0.01 0.19 0.19 94 1016.7
20181015183126 64 223 0.0 0.0 0.01 0.19 0.19 94 1016.6
20181015182626 64 224 0.0 0.0 0.01 0.19 0.19 94 1016.8
20181015182123 64 223 0.0 0.0 0.01 0.19 0.19 93 1016.7
20181015181623 64 223 0.0 0.0 0.01 0.19 0.19 93 1016.7
20181015181125 64 248 0.0 0.0 0.01 0.19 0.19 93 1016.8
20181015180622 64 248 0.0 0.0 0.00 0.18 0.18 93 1016.8
20181015180123 64 248 0.0 0.0 0.00 0.18 0.18 93 1017.0
20181015175624 64 248 0.0 0.0 0.00 0.18 0.18 93 1017.2
20181015175125 64 248 0.0 0.0 0.00 0.18 0.18 93 1017.2
20181015174624 64 248 0.0 0.0 0.00 0.18 0.18 92 1017.3
20181015174121 64 245 0.0 1.0 0.00 0.18 0.18 92 1017.3